Pembrey Sands, United Kingdom

2:40 PM BST on August 24, 2016 (GMT +0100)
Pembrey Sands

Weather History for EGOP - November, 2012

Change the Weather History Date:

Sunday, November 4, 2012

  Actual Average (EGFF) Record (EGFF)
Temperature  
Mean Temperature 44 °F -  
Max Temperature 45 °F 53 °F 59 °F (2010)
Min Temperature 42 °F 43 °F 32 °F (2006)
Degree Days  
Heating Degree Days 22    
Moisture  
Dew Point 41 °F    
Average Humidity 90    
Maximum Humidity 100    
Minimum Humidity 66    
Precipitation  
Precipitation 0.43 in - - ()
Sea Level Pressure  
Sea Level Pressure 29.28 in    
Wind  
Wind Speed 11 mph ()    
Max Wind Speed 20 mph    
Max Gust Speed 31 mph    
Visibility 6.0 miles    
Events      
Averages and records for this station are not official NWS values.
T = Trace of Precipitation, MM = Missing Value Source: Averaged Metar Reports

Daily Weather History Graph

Daily Weather History Graph

Search for Another Location

Airport or City:

Trip Planner

Search our weather history database for the weather conditions in past years. The results will help you decide how hot, cold, wet, or windy it might be!

Date:

Astronomy

Nov. 04, 2012 Rise Set
Actual Time 7:17 AM GMT 4:43 PM GMT
Civil Twilight 6:41 AM GMT 5:19 PM GMT
Nautical Twilight 6:01 AM GMT 5:59 PM GMT
Astronomical Twilight 5:22 AM GMT 6:38 PM GMT
Moon 9:00 PM GMT (11/4) 12:01 PM GMT (11/4)
Length of Visible Light 10h 37m
Length of Day
9h 26m
Waning Gibbous, 74% of the Moon is Illuminated
Nov 4
Waning Gibbous
Nov 7
Last Quarter
Nov 13
New
Nov 20
First Quarter
Nov 28
Full

Hourly Weather History & Observations

Time (GMT) Temp. Windchill Dew Point Humidity Pressure Visibility Wind Dir Wind Speed Gust Speed Precip Events Conditions
12:50 AM 48.2 °F - 37.4 °F 66% 29.36 in 6.2 mi SSW 19.6 mph - N/A   Partly Cloudy
1:50 AM 46.4 °F 41.5 °F 37.4 °F 71% 29.36 in 6.2 mi South 10.4 mph - N/A   Mostly Cloudy
2:50 AM 46 °F - 42 °F 83% 29.33 in 12 mi SSE 13.8 mph - -   Scattered Clouds
2:50 AM 46.4 °F 40.4 °F 42.8 °F 87% 29.33 in 6.2 mi SSE 13.8 mph - N/A   Mostly Cloudy
3:50 AM 46.4 °F 41.9 °F 41.0 °F 81% 29.30 in 6.2 mi SE 9.2 mph - N/A   Overcast
4:50 AM 44.6 °F 39.7 °F 41.0 °F 87% 29.27 in 6.2 mi East 9.2 mph - N/A   Mostly Cloudy
5:50 AM 43 °F - 39 °F 81% 29.29 in 19 mi ESE 12.7 mph - -   Scattered Clouds
5:50 AM 42.8 °F 36.2 °F 39.2 °F 87% 29.27 in 6.2 mi ESE 12.7 mph - N/A   Mostly Cloudy
6:50 AM 44.6 °F 38.8 °F 41.0 °F 87% 29.27 in 6.2 mi SE 11.5 mph - N/A   Mostly Cloudy
7:50 AM 42.8 °F 36.6 °F 41.0 °F 93% 29.27 in 6.2 mi SSE 11.5 mph - N/A   Mostly Cloudy
8:50 AM 43 °F - 41 °F 90% 29.29 in 22 mi East 8.1 mph - -   Scattered Clouds
8:50 AM 42.8 °F 38.0 °F 41.0 °F 93% 29.27 in 6.2 mi East 8.1 mph - N/A   Mostly Cloudy
9:50 AM 44.6 °F 39.2 °F 42.8 °F 93% 29.27 in 6.2 mi ESE 10.4 mph - N/A   Unknown
10:50 AM 44.6 °F 38.8 °F 42.8 °F 93% 29.27 in 6.2 mi SE 11.5 mph - N/A   Mostly Cloudy
11:50 AM 44 °F - 42 °F 89% 29.28 in 4 mi East 8.1 mph - -   Mostly Cloudy
11:50 AM 44.6 °F 40.2 °F 42.8 °F 93% 29.27 in 3.7 mi East 8.1 mph - N/A   Mostly Cloudy
12:50 PM 44.6 °F 38.1 °F 42.8 °F 93% 29.24 in 6.2 mi East 13.8 mph - N/A   Mostly Cloudy
1:50 PM 44.6 °F 38.1 °F 42.8 °F 93% 29.24 in 6.2 mi ESE 13.8 mph - N/A   Scattered Clouds
2:50 PM 45 °F - 42 °F 84% 29.25 in 25 mi ESE 15.0 mph - -   Scattered Clouds
2:50 PM 44.6 °F 37.8 °F 41.0 °F 87% 29.24 in 6.2 mi ESE 15.0 mph 27.6 mph N/A   Mostly Cloudy
3:50 PM 44.6 °F 37.2 °F 41.0 °F 87% 29.24 in 1.2 mi ESE 17.3 mph - N/A   Mostly Cloudy
4:50 PM 42.8 °F 34.8 °F 41.0 °F 93% 29.24 in 4.3 mi ESE 17.3 mph 28.8 mph N/A   Mostly Cloudy
5:50 PM 43 °F - 42 °F 94% 29.25 in 2 mi ENE 5.8 mph - -   Partly Cloudy
5:50 PM 42.8 °F 39.3 °F 42.8 °F 100% 29.24 in 1.7 mi ENE 5.8 mph - N/A   Mostly Cloudy
6:50 PM 44.6 °F 37.2 °F 42.8 °F 93% 29.24 in 2.5 mi ESE 17.3 mph 31.1 mph N/A   Mostly Cloudy
7:50 PM 44.6 °F 38.4 °F 42.8 °F 93% 29.27 in 3.1 mi ESE 12.7 mph - N/A   Mostly Cloudy
8:50 PM 43 °F - 42 °F 96% 29.29 in 3 mi East 16.1 mph - -   Partly Cloudy
8:50 PM 42.8 °F 35.1 °F 42.8 °F 100% 29.27 in - East 16.1 mph 28.8 mph N/A   Mostly Cloudy
9:50 PM 42.8 °F 35.8 °F 42.8 °F 100% 29.33 in 6.2 mi East 13.8 mph - N/A   Mostly Cloudy
10:50 PM 42.8 °F 36.2 °F 41.0 °F 93% 29.33 in 6.2 mi East 12.7 mph - N/A   Mostly Cloudy
11:50 PM 42 °F - 40 °F 91% 29.38 in 13 mi ENE 12.7 mph - -   Scattered Clouds
11:50 PM 42.8 °F 36.2 °F 41.0 °F 93% 29.36 in 6.2 mi ENE 12.7 mph - N/A   Mostly Cloudy